{"data":{"norad_id":48656,"intl_designator":"2021-044U","name":"STARLINK-2701","alt_names":[],"object_type":"PAYLOAD","status":"ACTIVE","operator":null,"country":"US","launch_date":"2021-05-26","launch_site_code":"AFETR","launch_vehicle":null,"mission":null,"orbit_class":"UNKNOWN","rcs_meters":null,"size_class":null,"mass_kg":null,"dimensions":null,"purposes":["comms"],"wikipedia_slug":null,"has_3d_model":false,"image_url":null,"decayed_at":null,"tle_current":{"epoch":"2026-09-19T13:35:29.833728Z","epoch_age_seconds":117909,"freshness":"FRESH","line1":"1 48656U 21044U   26262.56631752  .00001458  00000+0  58706-4 0  9990","line2":"2 48656  53.1591 291.5728 0001234  88.5284 271.5859 15.31713881293531","mean_motion":15.31713881,"eccentricity":0.0001234,"inclination_deg":53.1591,"raan_deg":291.5728,"arg_perigee_deg":88.5284,"mean_anomaly_deg":271.5859,"bstar":5.8706e-5,"rev_number":29353,"period_min":94.012335976212,"perigee_km":469.85347068431,"apogee_km":471.54376331459,"semimajor_km":6848.8356169994,"source":"CELESTRAK","updated_at":"2026-09-20T09:00:39.142400Z"}}}